www.pogodaiklimat.ru

АРХИВ ПОГОДЫ в Сиэтле

Время (UTC), дата Ветер
(напр.,м/с)
 
Видим.   Явления Облачность Т
(С)
Тd
(С)
f
(%)
Тe
(С)
Тes
(С)
Комфортность

P
(гПа)

Po
(гПа)
Тmin
(С)
Tmax
(С)
R
(мм)
SD
(см)
06:53 16.06 ЮВ  16 км    8/8 1950 м  +11.7  +8.3  80  +10  +10    1015.7  999.6         
07:53 16.06 Ю  16 км    8/0 2100 м
[средняя] 
+11.7  +8.3  80  +10  +10    1015.7  999.6         
08:53 16.06 Ю  16 км    10/8 1500 м
[средняя] 
+11.1  +7.8  80  +9  +9    1015.8  999.6         
09:53 16.06 Ю  16 км    10/2 1500 м
[средняя] 
+11.1  +8.3  83  +9  +9    1015.9  999.9         
10:53 16.06 Ю  16 км    10/5 1650 м
[средняя] 
+11.1  +8.3  83  +9  +9    1016.1  999.9         
11:53 16.06 Ю  16 км    10/8 1500 м
[средняя] 
+10.6  +8.3  86  +8  +8    1016.7  1000.2  +10.6  +12.2     
12:53 16.06 Ю  16 км    8/2 360 м
[средняя] 
+10.6  +8.3  86  +9  +9    1017.1  1000.9         
13:53 16.06 Ю  16 км    8/2 360 м
[средняя верхняя] 
+10.6  +8.3  86  +8  +8    1017.6  1001.2         
14:53 16.06 Ю  16 км    5/2 390 м
[средняя верхняя] 
+12.8  +8.3  74  +11  +12    1017.8  1001.6         
15:53 16.06 ЮЗ  16 км    5/5 450 м
[верхняя] 
+13.3  +7.8  69  +12  +14    1018.4  1001.9         
16:53 16.06 Ю  16 км    5/2 600 м
[верхняя] 
+14.4  +7.2  62  +13  +16    1018.8  1002.6         
17:53 16.06 ЮЗ  16 км    5/5 750 м
[верхняя] 
+15.6  +4.4  47  +15  +17    1019.3  1002.9  +10.6  +16.1     
18:53 16.06 ЮЗ  16 км    5/5 900 м
[верхняя] 
+17.2  +3.9  41  +16  +19    1019.2  1002.9         
19:53 16.06 ЮЗ  16 км  ливневый дождь  5/5 900 м  +17.8  +5.0  43  +18  +23    1019.5  1003.2         
20:53 16.06 ЮЗ  16 км  ливневый дождь  5/5 1050 м  +18.3  +5.6  43  +18  +24    1019.5  1003.2         
21:53 16.06 З  2
{8} 
16 км    5/5 1200 м  +19.4  +3.9  36  +20  +28    1019.7  1003.6         
22:53 16.06 ЮЗ  16 км    5/5 1200 м  +20.0  +3.3  33  +20  +25    1019.6  1003.2         
23:53 16.06 ЮЗ  6
{8} 
16 км    5/5 1200 м  +20.6  +4.4  34  +21  +23  комфорт  1019.8  1003.6  +15.6  +21.1     
00:53 17.06 З  16 км    5/5 1200 м
[средняя] 
+20.0  +5.6  39  +21  +25  комфорт  1020.0  1003.9         
01:53 17.06 З  16 км    5/5 1200 м
[средняя] 
+18.9  +6.1  43  +19  +20    1020.4  1004.2         
02:53 17.06 СЗ  16 км    5/2 1500 м
[средняя] 
+17.8  +7.2  50  +18  +19    1021.0  1004.9         
03:53 17.06 ЮВ  16 км    5/5 1200 м
[средняя] 
+16.1  +7.2  56  +15  +16    1021.6  1005.2         
04:53 17.06 Ю  16 км    8/5 1350 м
[средняя] 
+14.4  +8.3  67  +13  +13    1022.3  1005.9         
05:53 17.06 ЮВ  16 км    8/8 1350 м
[средняя] 
+13.3  +8.9  75  +12  +12    1022.3  1005.9  +13.3  +20.0     
06:53 17.06 В  16 км    8/8 1410 м  +13.3  +8.3  72  +12  +12    1022.3  1005.9         
07:53 17.06 В  16 км    ясно  +12.8  +7.8  72  +11  +11    1022.2  1005.9         
08:53 17.06 СВ  16 км    ясно  +12.2  +7.8  74  +11  +11    1022.2  1005.9         
09:53 17.06 С  16 км    ясно  +12.2  +7.8  74  +10  +10    1021.7  1005.6         
10:53 17.06 С  16 км    ясно  +11.7  +7.8  77  +10  +10    1021.7  1005.6         
11:53 17.06 С  16 км    2/0 3600 м
[средняя] 
+11.1  +7.8  80  +9  +9    1021.7  1005.6  +11.1  +13.9     
12:53 17.06 С  16 км    5/0 3600 м
[средняя верхняя] 
+10.6  +8.3  86  +8  +8    1021.6  1005.2         
13:53 17.06 С  16 км    2/2 300 м
[верхняя] 
+11.7  +8.3  80  +9  +9    1022.0  1005.6         
14:53 17.06 С  16 км    2/2 1500 м
[верхняя] 
+13.3  +7.2  67  +11  +11    1021.8  1005.6         
15:53 17.06 С  16 км    2/2 1500 м
[верхняя] 
+15.0  +7.2  60  +13  +14    1021.7  1005.6         
16:53 17.06 С  6
{9} 
16 км    5/2 1650 м
[верхняя] 
+17.2  +7.2  52  +16  +18    1021.3  1004.9         
17:53 17.06 С  16 км    8/2 1650 м
[средняя верхняя] 
+18.3  +6.7  47  +18  +19    1020.7  1004.6  +10.0  +18.3     
18:53 17.06 СЗ  6
{8} 
16 км    8/2 1650 м
[средняя верхняя] 
+19.4  +7.8  47  +20  +22    1020.3  1004.2         
19:53 17.06 СЗ  16 км    8/2 1650 м
[средняя верхняя] 
+19.4  +7.8  47  +20  +22    1019.4  1003.2         
20:53 17.06 СЗ  16 км  ливневый дождь  8/2 1500 м
[средняя верхняя] 
+18.3  +7.2  48  +18  +21    1019.4  1003.2         
21:53 17.06 З  16 км  слабый дождь  10/2 1200 м
[средняя] 
+15.6  +10.0  69  +15  +19    1020.6  1004.2         
22:53 17.06 З  16 км    10/2 1110 м
[средняя] 
+15.0  +11.1  77  +14  +17    1019.9  1003.6         
23:53 17.06 ЮЗ  14 км  слабый дождь  10/0 2100 м
[средняя] 
+13.9  +12.2  89  +13  +15    1020.6  1004.2  +13.9  +20.6  1.0   
00:53 18.06 ЮЗ  16 км    10/2 600 м
[средняя] 
+14.4  +12.2  87  +14  +16    1020.2  1003.9         
01:53 18.06 ЮЗ  16 км    8/5 600 м
[средняя] 
+15.0  +11.1  77  +15  +17    1020.0  1003.6         
02:53 18.06 ЮЗ  16 км    8/5 900 м
[средняя] 
+13.9  +10.6  80  +14  +14    1019.9  1003.6      0.5   
03:53 18.06 штиль  16 км  слабый дождь  8/5 1410 м
[средняя] 
+14.4  +10.0  75  +14  +14    1019.6  1003.2         
04:53 18.06 штиль  16 км    8/2 1440 м
[средняя] 
+13.9  +11.1  83  +14  +14    1019.9  1003.6         
05:53 18.06 штиль  16 км  слабый дождь  10/0 2250 м
[средняя] 
+13.9  +11.7  87  +13  +13    1019.7  1003.6  +13.3  +15.6  0.5   

 

Местоположение метеостанции Seattle-Tacoma International Airport: широта 47.4447 долгота -122.3136 высота над уровнем моря 130 м.

В архиве по умолчанию представлена погода в Сиэтле за последние 1-2 суток. Обновление информации о фактической погоде в базе происходит ежечасно! Архивные данные за месяц целиком и за предыдущие месяцы Вы можете получить, выбрав интересующий диапазон дат из раскрывающегося списка и нажав кнопку "Ввод!".

Внимание! Архив погоды МЕТАР в базе сайта в настоящее время начинается c 1 января 2013 г. Нет смысла пытаться выбрать более раннюю дату.

Внимание! Время в таблицах - всемирное. Для получения местного времени необходимо прибавить поправку, которая в Сиэтле равна -8 ч.

Ветер - указаны скорость ветра в м/с и направление, откуда дует ветер: С - северный, СВ - северо-восточный, В - восточный, ЮВ - юго-восточный, Ю - южный, ЮЗ - юго-западный, З - западный, СЗ - северо-западный.
Видимость - горизонтальная дальность видимости в метрах или километрах. При видимости от 1 до 10 км при отсутствии осадков обычно наблюдается дымка, при ухудшении видимости до 1 км и менее - туман. В сухую погоду видимость может ухудшаться дымом, пылью или мглою.
Атмосферные явления - указаны явления, наблюдавшиеся в указанный момент времени.
Облачность - указаны через наклонную черту верхняя и нижняя облачность в баллах и высота нижней границы облаков в метрах. Внимание: облачность, как и прочие метеорологические величины в США измеряются автоматическими метеостанциями. Указанные значения в баллах носят условный характер и показывают процент времени, в течение которого, в среднем, лазерный луч высотомера отражался от облаков обратно.
T - Температура воздуха - температура, измеренная на высоте 2 м над землей.
Td - Температура точки росы - температура, при понижении до которой содержащийся в воздухе водяной пар достигнет насыщения.
f - Относительная влажность воздуха - влажноcть воздуха, измеренная на высоте 2 м над землей.
Te - Эффективная температура - температура, которую ощущает одетый по сезону человек в тени. Характеристика душности погоды. При расчете учитывается влияние влажности воздуха и скорости ветра на теплоощущения человека.
Tes - Эффективная температура на солнце - температура, которую ощущает человек, с поправкой на солнечный нагрев. Характеристика знойности погоды. Зависит от высоты солнца над горизонтом, облачности и скорости ветра. Ночью, в пасмурную погоду, а также при ветре 12 м/с и более поправка равна нулю.
P - Атмосферное давление - приведенное к уровню моря атмосферное давление.
Po - Атмосферное давление - измеренное на уровне метеостанции атмосферное давление.
Tmin - Минимальная температура - минимум температуры воздуха на высоте 2 м над землей.
Tmax - Максимальная температура - максимум температуры воздуха на высоте 2 м над землей.
R - Количество осадков - Количество выпавших осадков за 3 или 6 часов, мм.
SD - Снежный покров - Высота снежного покрова, см.